| time (UTC) | temp C | wind direction | speed KPH | gust KPH | rain 1hr cm | rain 24hr cm | rain mn cm | humidity % | barometer mb |
| 20260506231551 | 20 | 65 | 4.8 | 17.7 | 0.00 | 0.13 | 0.13 | 78 | 1005.8 |
| 20260506230049 | 20 | 119 | 6.4 | 16.1 | 0.00 | 0.13 | 0.13 | 79 | 1005.9 |
| 20260506224547 | 20 | 85 | 6.4 | 14.5 | 0.00 | 0.13 | 0.13 | 79 | 1006.0 |
| 20260506223049 | 20 | 78 | 6.4 | 17.7 | 0.00 | 0.13 | 0.13 | 79 | 1006.2 |
| 20260506221554 | 20 | 89 | 12.9 | 19.3 | 0.00 | 0.13 | 0.13 | 77 | 1005.9 |
| 20260506220044 | 20 | 132 | 6.4 | 20.9 | 0.00 | 0.13 | 0.13 | 76 | 1006.0 |
| 20260506214543 | 20 | 114 | 11.3 | 22.5 | 0.00 | 0.13 | 0.13 | 76 | 1005.7 |
| 20260506213042 | 20 | 159 | 9.7 | 20.9 | 0.00 | 0.13 | 0.13 | 76 | 1005.7 |
| 20260506211542 | 20 | 149 | 12.9 | 24.1 | 0.00 | 0.13 | 0.13 | 76 | 1005.6 |
| 20260506210039 | 20 | 100 | 9.7 | 20.9 | 0.00 | 0.13 | 0.13 | 77 | 1005.6 |
| 20260506204539 | 20 | 119 | 14.5 | 29.0 | 0.00 | 0.13 | 0.13 | 77 | 1005.7 |
| 20260506203036 | 20 | 108 | 11.3 | 32.2 | 0.00 | 0.13 | 0.13 | 77 | 1005.5 |
| 20260506201535 | 20 | 146 | 14.5 | 30.6 | 0.00 | 0.13 | 0.13 | 79 | 1005.4 |
| 20260506200039 | 18 | 124 | 14.5 | 30.6 | 0.00 | 0.13 | 0.13 | 79 | 1005.7 |
| 20260506194527 | 18 | 141 | 11.3 | 25.7 | 0.00 | 0.13 | 0.13 | 80 | 1005.7 |
| 20260506193030 | 18 | 51 | 16.1 | 25.7 | 0.00 | 0.13 | 0.13 | 81 | 1005.8 |
| 20260506193028 | 18 | 63 | 16.1 | 25.7 | 0.00 | 0.13 | 0.13 | 81 | 1005.8 |
| 20260506191524 | 18 | 98 | 6.4 | 25.7 | 0.00 | 0.13 | 0.13 | 81 | 1006.1 |
| 20260506190023 | 18 | 57 | 12.9 | 27.4 | 0.00 | 0.13 | 0.13 | 81 | 1006.3 |
| 20260506184519 | 18 | 130 | 11.3 | 30.6 | 0.00 | 0.13 | 0.13 | 82 | 1006.1 |
| 20260506183018 | 17 | 105 | 9.7 | 24.1 | 0.00 | 0.13 | 0.13 | 82 | 1006.5 |
| 20260506181519 | 17 | 109 | 14.5 | 24.1 | 0.00 | 0.13 | 0.13 | 83 | 1006.7 |
| 20260506180018 | 17 | 56 | 8.0 | 17.7 | 0.00 | 0.13 | 0.13 | 85 | 1006.8 |
| 20260506174510 | 17 | 167 | 9.7 | 29.0 | 0.00 | 0.13 | 0.13 | 85 | 1006.8 |
| 20260506173009 | 17 | 38 | 11.3 | 24.1 | 0.03 | 0.13 | 0.13 | 84 | 1006.9 |
| 20260506171506 | 17 | 71 | 11.3 | 25.7 | 0.03 | 0.13 | 0.13 | 85 | 1006.8 |
| 20260506170005 | 17 | 137 | 9.7 | 24.1 | 0.05 | 0.13 | 0.13 | 85 | 1007.1 |
| 20260506164502 | 17 | 82 | 8.0 | 27.4 | 0.08 | 0.13 | 0.13 | 85 | 1007.1 |
| 20260506163106 | 17 | 100 | 6.4 | 19.3 | 0.08 | 0.10 | 0.10 | 86 | 1007.2 |
| 20260506161558 | 17 | 109 | 6.4 | 22.5 | 0.10 | 0.10 | 0.10 | 85 | 1007.4 |
| 20260506160107 | 17 | 103 | 11.3 | 17.7 | 0.08 | 0.08 | 0.08 | 84 | 1007.9 |
| 20260506154554 | 17 | 125 | 9.7 | 20.9 | 0.05 | 0.05 | 0.05 | 82 | 1008.2 |
| 20260506153049 | 17 | 136 | 11.3 | 22.5 | 0.03 | 0.03 | 0.03 | 80 | 1008.3 |
| 20260506151549 | 18 | 125 | 11.3 | 27.4 | 0.00 | 0.00 | 0.00 | 77 | 1007.9 |
| 20260506150048 | 18 | 116 | 12.9 | 29.0 | 0.00 | 0.00 | 0.00 | 73 | 1007.9 |
| 20260506144546 | 19 | 112 | 14.5 | 30.6 | 0.00 | 0.00 | 0.00 | 70 | 1008.0 |
| 20260506143045 | 19 | 107 | 17.7 | 32.2 | 0.00 | 0.00 | 0.00 | 69 | 1008.0 |
| 20260506141603 | 20 | 122 | 17.7 | 40.2 | 0.00 | 0.00 | 0.00 | 68 | 1008.1 |
| 20260506140044 | 20 | 86 | 16.1 | 32.2 | 0.00 | 0.00 | 0.00 | 68 | 1008.0 |
| 20260506134539 | 20 | 87 | 14.5 | 30.6 | 0.00 | 0.00 | 0.00 | 68 | 1008.0 |
| 20260506133035 | 19 | 104 | 9.7 | 30.6 | 0.00 | 0.00 | 0.00 | 70 | 1007.9 |
| 20260506131537 | 18 | 131 | 8.0 | 25.7 | 0.00 | 0.00 | 0.00 | 72 | 1008.0 |
| 20260506130034 | 18 | 130 | 11.3 | 30.6 | 0.00 | 0.00 | 0.00 | 72 | 1008.4 |
| 20260506124536 | 18 | 78 | 16.1 | 29.0 | 0.00 | 0.00 | 0.00 | 72 | 1008.3 |
| 20260506123039 | 18 | 104 | 11.3 | 25.7 | 0.00 | 0.00 | 0.00 | 73 | 1008.4 |
| 20260506121529 | 18 | 69 | 11.3 | 25.7 | 0.00 | 0.00 | 0.00 | 74 | 1008.4 |
| 20260506120037 | 18 | 51 | 9.7 | 30.6 | 0.00 | 0.00 | 0.00 | 74 | 1008.2 |
| 20260506114527 | 18 | 102 | 12.9 | 22.5 | 0.00 | 0.00 | 0.00 | 76 | 1008.1 |
| 20260506113026 | 17 | 112 | 9.7 | 24.1 | 0.00 | 0.00 | 0.00 | 77 | 1008.1 |
| 20260506111523 | 17 | 28 | 9.7 | 22.5 | 0.00 | 0.00 | 0.00 | 78 | 1008.0 |
| 20260506110025 | 17 | 92 | 9.7 | 20.9 | 0.00 | 0.00 | 0.00 | 78 | 1008.0 |
| 20260506104518 | 17 | 78 | 9.7 | 20.9 | 0.00 | 0.00 | 0.00 | 79 | 1008.1 |
| 20260506103026 | 17 | 69 | 9.7 | 20.9 | 0.00 | 0.00 | 0.00 | 79 | 1008.0 |
| 20260506101515 | 17 | 55 | 8.0 | 20.9 | 0.00 | 0.00 | 0.00 | 80 | 1008.0 |
| 20260506100013 | 17 | 40 | 9.7 | 20.9 | 0.00 | 0.00 | 0.00 | 80 | 1007.9 |
| 20260506094525 | 17 | 360 | 9.7 | 19.3 | 0.00 | 0.00 | 0.00 | 80 | 1008.0 |
| 20260506093006 | 17 | 59 | 8.0 | 19.3 | 0.00 | 0.00 | 0.00 | 79 | 1007.9 |
| 20260506091504 | 17 | 60 | 8.0 | 22.5 | 0.00 | 0.00 | 0.00 | 79 | 1007.8 |
| 20260506090002 | 17 | 82 | 11.3 | 24.1 | 0.00 | 0.00 | 0.00 | 78 | 1008.0 |
| 20260506084532 | 17 | 78 | 4.8 | 16.1 | 0.00 | 0.00 | 0.00 | 78 | 1008.1 |
| 20260506083029 | 18 | 63 | 11.3 | 19.3 | 0.00 | 0.00 | 0.00 | 78 | 1007.9 |
| 20260506081523 | 18 | 59 | 11.3 | 19.3 | 0.00 | 0.05 | 0.00 | 77 | 1008.1 |
| 20260506073016 | 18 | 98 | 6.4 | 19.3 | 0.00 | 0.05 | 0.00 | 75 | 1008.2 |
| 20260506071514 | 18 | 67 | 9.7 | 19.3 | 0.00 | 0.05 | 0.00 | 75 | 1008.2 |
| 20260506061506 | 18 | 70 | 4.8 | 12.9 | 0.00 | 0.05 | 0.00 | 76 | 1008.5 |
| 20260506044557 | 19 | 65 | 4.8 | 12.9 | 0.00 | 0.05 | 0.00 | 71 | 1009.2 |
| 20260506043048 | 19 | 69 | 6.4 | 14.5 | 0.00 | 0.05 | 0.00 | 71 | 1009.1 |
| 20260506041551 | 19 | 89 | 4.8 | 19.3 | 0.00 | 0.05 | 0.05 | 70 | 1009.1 |
| 20260506040044 | 19 | 103 | 8.0 | 17.7 | 0.00 | 0.05 | 0.05 | 69 | 1009.0 |
| 20260506034541 | 20 | 67 | 8.0 | 16.1 | 0.00 | 0.05 | 0.05 | 68 | 1008.9 |
| 20260506033039 | 20 | 120 | 8.0 | 19.3 | 0.00 | 0.05 | 0.05 | 67 | 1008.7 |
| 20260506031554 | 20 | 102 | 12.9 | 24.1 | 0.00 | 0.05 | 0.05 | 66 | 1008.7 |
| 20260506030046 | 20 | 89 | 4.8 | 16.1 | 0.00 | 0.05 | 0.05 | 66 | 1008.9 |
| 20260506024538 | 20 | 61 | 3.2 | 14.5 | 0.00 | 0.05 | 0.05 | 65 | 1009.0 |
| 20260506023038 | 20 | 142 | 6.4 | 19.3 | 0.00 | 0.05 | 0.05 | 64 | 1009.0 |
| 20260506021535 | 21 | 80 | 8.0 | 17.7 | 0.00 | 0.05 | 0.05 | 62 | 1008.9 |
| 20260506020005 | 21 | 51 | 9.7 | 24.1 | 0.00 | 0.05 | 0.05 | 60 | 1008.8 |
| 20260506014505 | 21 | 57 | 6.4 | 12.9 | 0.00 | 0.05 | 0.05 | 57 | 1008.7 |
| 20260506013102 | 22 | 35 | 9.7 | 16.1 | 0.00 | 0.05 | 0.05 | 55 | 1008.5 |
| 20260506013002 | 22 | 72 | 9.7 | 16.1 | 0.00 | 0.05 | 0.05 | 55 | 1008.4 |
| 20260506011601 | 22 | 94 | 8.0 | 17.7 | 0.00 | 0.05 | 0.05 | 53 | 1008.4 |
| 20260506004627 | 23 | 67 | 9.7 | 19.3 | 0.00 | 0.05 | 0.05 | 51 | 1008.1 |
| 20260506003058 | 23 | 123 | 12.9 | 22.5 | 0.00 | 0.05 | 0.05 | 50 | 1008.1 |
| 20260506001559 | 23 | 115 | 8.0 | 20.9 | 0.00 | 0.05 | 0.05 | 48 | 1007.9 |
| 20260506000057 | 23 | 78 | 9.7 | 27.4 | 0.00 | 0.05 | 0.05 | 47 | 1007.4 |
| 20260505234614 | 24 | 104 | 8.0 | 22.5 | 0.00 | 0.05 | 0.05 | 46 | 1007.3 |
| 20260505233050 | 25 | 90 | 11.3 | 27.4 | 0.00 | 0.05 | 0.05 | 46 | 1007.4 |